[[{"header":{"parameterUnit":"m.s-1","parameterCategory":1,"la1":30.2991,"la2":30.254,"lo1":-89.0895,"lo2":-89.0444,"dy":0.0017,"dx":0.0017,"nx":28,"ny":28,"refTime":"2024-04-30T03:00:00:Z","depth":0,"parameterNumber":2,"parameterNumberName":"U-component_of_WINDS"},"data":[0,0,0,0,0,0,0,0,0,0,0,0,0,0,0,0,0,0,0,0,0,0,0,0,0,0,0,0,0,0,0,0,0,0,0,0,0,0,0,0,0,0,0,0,0,0,0,0,0,0,0,0,0,0,0,0,0,0,-0.2419,-0.2421,0,-0.262,-0.2622,-0.2625,-0.2753,-0.2754,-0.2755,-0.2756,-0.2959,-0.2964,-0.2968,0,0,0,0,0,0,0,0,0,0,0,0,0,-0.214,-0.2145,-0.2419,-0.2421,-0.2424,-0.262,-0.2622,-0.2625,-0.2753,-0.2754,-0.2755,-0.2756,-0.2957,-0.2963,-0.2969,0,0,0,0,0,0,0,0,0,0,0,0,0,-0.2293,-0.2146,-0.2418,-0.2512,-0.2522,-0.2619,-0.2623,-0.2626,-0.2753,-0.2754,-0.2756,-0.2757,-0.2956,-0.2962,-0.2969,-0.2989,0,0,-0.2991,-0.2994,0,0,0,0,0,0,0,0,-0.2284,-0.2303,-0.2495,-0.2505,-0.2517,-0.2663,-0.2599,-0.2748,-0.2753,-0.2665,-0.2756,-0.2757,-0.2859,-0.2874,-0.2909,-0.2999,-0.3007,-0.2991,-0.2996,-0.2999,-0.3001,0,0,0,0,0,0,0,-0.2273,-0.2295,-0.2499,-0.2498,-0.2511,-0.2541,-0.2564,-0.2628,-0.2753,-0.2673,-0.2683,-0.2705,-0.2866,-0.2902,-0.2915,-0.301,-0.2991,-0.2997,-0.3002,-0.3005,-0.312,-0.3119,0,0,0,0,0,0,-0.2249,-0.2286,-0.2492,-0.2505,-0.2401,-0.2545,-0.2571,-0.2615,-0.2753,-0.2775,-0.2704,-0.271,-0.289,-0.2907,-0.2923,-0.2951,-0.2999,-0.3005,-0.3009,-0.3121,-0.3119,-0.3118,0,0,0,0,0,0,-0.2242,-0.2266,-0.2484,-0.2398,-0.2428,-0.2549,-0.2597,-0.2618,-0.2655,-0.2776,-0.2799,-0.2719,-0.2891,-0.2913,-0.2971,-0.296,-0.3008,-0.3015,-0.3122,-0.312,-0.3119,-0.301,0,0,0,0,0,0,-0.2234,-0.2263,-0.2273,-0.2397,-0.2432,-0.253,-0.2597,-0.2621,-0.2667,-0.2678,-0.2796,-0.2817,-0.2894,-0.2959,-0.2977,-0.2971,-0.302,-0.3124,-0.3121,-0.3119,-0.3015,-0.3005,-0.2996,0,0,0,0,0,-0.2223,-0.2235,-0.2273,-0.2298,-0.2448,-0.2529,-0.2549,-0.2638,-0.2666,-0.2676,-0.2753,-0.2813,-0.2958,-0.2964,-0.2986,-0.2981,-0.3125,-0.3122,-0.3119,-0.3019,-0.3007,-0.2996,0,0,0,0,0,0,-0.2108,-0.2254,-0.2297,-0.235,-0.2426,-0.2551,-0.2567,-0.2623,-0.2692,-0.2699,-0.2806,-0.2831,-0.2877,-0.2935,-0.2939,-0.3004,-0.3048,-0.305,-0.2964,-0.2954,-0.2944,-0.2928,-0.3026,0,0,0,0,0,-0.2088,-0.2144,-0.2268,-0.2302,-0.2338,-0.2445,-0.2484,-0.2546,-0.2629,-0.2661,-0.2743,-0.282,-0.2882,-0.2922,-0.2987,-0.3024,-0.3049,-0.3031,-0.3021,-0.3013,-0.3012,-0.3031,-0.3023,-0.311,-0.311,-0.311,0,0,-0.2049,-0.2136,-0.2164,-0.2281,-0.2347,-0.2399,-0.2472,-0.2526,-0.2564,-0.267,-0.2728,-0.279,-0.2882,-0.2928,-0.2953,-0.2978,-0.2993,-0.3009,-0.3002,-0.3006,-0.3027,-0.3019,-0.3012,-0.3108,-0.3108,-0.3108,0,0,-0.2004,-0.2076,-0.2111,-0.2175,-0.2274,-0.2344,-0.2352,-0.2467,-0.2512,-0.2573,-0.2651,-0.2698,-0.2805,-0.2866,-0.2911,-0.2883,-0.2939,-0.2901,-0.285,-0.2867,-0.2861,-0.2855,-0.2841,-0.2835,-0.29,-0.29,-0.29,0,-0.1942,-0.2026,-0.2121,-0.2169,-0.2216,-0.2313,-0.2346,-0.2403,-0.2518,-0.2547,-0.2574,-0.2706,-0.2776,-0.2835,-0.2827,-0.2862,-0.2871,-0.2888,-0.2854,-0.285,-0.2846,-0.2833,-0.2828,-0.2894,-0.2895,-0.2896,-0.2896,0,-0.1943,-0.1999,-0.2015,-0.2122,-0.2171,-0.2211,-0.2309,-0.2347,-0.2403,-0.2469,-0.2526,-0.2613,-0.2694,-0.2713,-0.277,-0.2779,-0.2791,-0.2834,-0.2881,-0.283,-0.282,-0.2816,-0.2886,-0.2888,-0.289,-0.2891,0,0,-0.1833,-0.1989,-0.1993,-0.204,-0.2154,-0.2198,-0.2241,-0.232,-0.2348,-0.2423,-0.2458,-0.2544,-0.2584,-0.2634,-0.2698,-0.2713,-0.2679,-0.2755,-0.2758,-0.2734,-0.2689,-0.2653,-0.2647,-0.2717,-0.2717,-0.2717,-0.268,0,-0.1802,-0.1885,-0.1969,-0.2021,-0.2071,-0.2161,-0.2198,-0.2269,-0.2331,-0.2381,-0.245,-0.2507,-0.2557,-0.2587,-0.2607,-0.2679,-0.2671,-0.2683,-0.2748,-0.2749,-0.272,-0.2642,-0.2606,-0.2568,-0.2677,-0.2677,-0.2676,0,-0.1779,-0.1847,-0.1903,-0.2007,-0.2032,-0.2063,-0.214,-0.2188,-0.2269,-0.2313,-0.2366,-0.2433,-0.2478,-0.2519,-0.2581,-0.2587,-0.2618,-0.2657,-0.2657,-0.2665,-0.2708,-0.2645,-0.2559,-0.2551,-0.2672,-0.2672,-0.2673,0,-0.1687,-0.1794,-0.184,-0.1878,-0.2003,-0.2021,-0.2074,-0.2157,-0.2197,-0.2263,-0.229,-0.2361,-0.2398,-0.245,-0.2532,-0.2555,-0.2583,-0.2632,-0.2617,-0.2615,-0.2618,-0.2617,-0.2532,-0.2643,-0.2643,-0.2643,-0.2643,0,-0.1643,-0.1673,-0.18,-0.1828,-0.1863,-0.1958,-0.1988,-0.2049,-0.212,-0.2159,-0.2242,-0.2276,-0.2384,-0.2429,-0.2494,-0.2532,-0.255,-0.2583,-0.2599,-0.2575,-0.2569,-0.2595,-0.2599,-0.2641,-0.2642,-0.2642,-0.2642,0,-0.1548,-0.1635,-0.169,-0.1802,-0.183,-0.185,-0.1944,-0.1973,-0.2038,-0.2086,-0.2102,-0.2204,-0.2262,-0.2348,-0.2433,-0.2476,-0.2502,-0.2531,-0.2474,-0.2484,-0.2462,-0.2462,-0.239,-0.2383,-0.2499,-0.2498,-0.2497,0,-0.1513,-0.1538,-0.165,-0.1682,-0.1731,-0.1782,-0.1823,-0.1916,-0.1955,-0.2046,-0.2062,-0.2126,-0.2183,-0.227,-0.235,-0.2413,-0.2442,-0.2412,-0.2452,-0.2424,-0.2436,-0.2432,-0.2433,-0.2402,-0.24,-0.2399,-0.2397,0,-0.144,-0.1481,-0.1537,-0.1606,-0.1652,-0.1712,-0.1775,-0.1796,-0.1902,-0.194,-0.2,-0.2043,-0.2127,-0.2188,-0.2261,-0.2313,-0.237,-0.2384,-0.2383,-0.2357,-0.2321,-0.2336,-0.2445,-0.2385,-0.2386,-0.2387,-0.2388,-0.2388,-0.1372,-0.1396,-0.1477,-0.1536,-0.1592,-0.1648,-0.1679,-0.1747,-0.1798,-0.1874,-0.1925,-0.198,-0.2056,-0.216,-0.2208,-0.225,-0.2276,-0.2276,-0.2275,-0.2273,-0.2262,-0.2316,-0.2265,-0.2265,-0.2265,-0.2266,-0.2266,0,-0.13,-0.1356,-0.1409,-0.1493,-0.1537,-0.1589,-0.166,-0.1693,-0.174,-0.1807,-0.1859,-0.1924,-0.1982,-0.2065,-0.2128,-0.2146,-0.2173,-0.2159,-0.2157,-0.2167,-0.2238,-0.223,-0.2135,-0.2135,-0.2135,-0.2135,-0.2135,-0.2135,-0.1268,-0.1309,-0.1358,-0.1427,-0.1483,-0.1538,-0.1573,-0.1623,-0.1676,-0.1745,-0.1793,-0.1847,-0.1918,-0.1986,-0.204,-0.2062,-0.208,-0.2056,-0.2086,-0.215,-0.2162,-0.2174,-0.2167,-0.206,-0.206,-0.2011,-0.2011,-0.201]},{"header":{"parameterUnit":"m.s-1","parameterCategory":1,"la1":30.2991,"la2":30.254,"lo1":-89.0895,"lo2":-89.0444,"dy":0.0017,"dx":0.0017,"nx":28,"ny":28,"refTime":"2024-04-30T03:00:00:Z","depth":0,"parameterNumber":3,"parameterNumberName":"V-component_of_WINDS"},"data":[0,0,0,0,0,0,0,0,0,0,0,0,0,0,0,0,0,0,0,0,0,0,0,0,0,0,0,0,0,0,0,0,0,0,0,0,0,0,0,0,0,0,0,0,0,0,0,0,0,0,0,0,0,0,0,0,0,0,-0.9933,-0.9928,0,-0.9496,-0.9491,-0.9486,-0.9257,-0.9257,-0.9256,-0.9256,-0.8779,-0.8767,-0.8755,0,0,0,0,0,0,0,0,0,0,0,0,0,-1.0537,-1.0528,-0.9933,-0.9928,-0.9922,-0.9497,-0.9491,-0.9485,-0.9257,-0.9257,-0.9256,-0.9256,-0.8784,-0.8769,-0.8754,0,0,0,0,0,0,0,0,0,0,0,0,0,-1.0205,-1.0524,-0.9934,-0.9758,-0.9738,-0.9498,-0.949,-0.9483,-0.9257,-0.9257,-0.9256,-0.9256,-0.8788,-0.877,-0.8752,-0.8645,0,0,-0.8695,-0.8687,0,0,0,0,0,0,0,0,-1.0224,-1.0182,-0.9789,-0.977,-0.9747,-0.9431,-0.9529,-0.9201,-0.9257,-0.9439,-0.9256,-0.9256,-0.8995,-0.8959,-0.8877,-0.8622,-0.8602,-0.8693,-0.8682,-0.8674,-0.8669,0,0,0,0,0,0,0,-1.0247,-1.02,-0.9759,-0.9784,-0.9758,-0.969,-0.9642,-0.9465,-0.9223,-0.9423,-0.9405,-0.9358,-0.8983,-0.8896,-0.8864,-0.8595,-0.8694,-0.8677,-0.8666,-0.8658,-0.8219,-0.8218,0,0,0,0,0,0,-1.0303,-1.0221,-0.9773,-0.9746,-0.999,-0.968,-0.9626,-0.9532,-0.9225,-0.9178,-0.9359,-0.9349,-0.8928,-0.8886,-0.8846,-0.8696,-0.8674,-0.8656,-0.8646,-0.8219,-0.8218,-0.8218,0,0,0,0,0,0,-1.0317,-1.0265,-0.9791,-0.9978,-0.9913,-0.967,-0.9566,-0.9524,-0.9437,-0.9177,-0.9129,-0.9317,-0.8926,-0.8873,-0.8696,-0.8676,-0.8648,-0.8631,-0.822,-0.8219,-0.8218,-0.8398,0,0,0,0,0,0,-1.0335,-1.0272,-1.0237,-0.998,-0.9904,-0.9659,-0.9565,-0.9516,-0.9409,-0.9392,-0.9125,-0.908,-0.8921,-0.8726,-0.8678,-0.865,-0.8617,-0.822,-0.8219,-0.8218,-0.8393,-0.8403,-0.8413,0,0,0,0,0,-1.0358,-1.03,-1.0237,-1.0184,-0.9858,-0.9659,-0.9614,-0.9442,-0.9409,-0.9366,-0.9197,-0.9088,-0.8686,-0.871,-0.8654,-0.862,-0.8221,-0.822,-0.8218,-0.8388,-0.8401,-0.8412,0,0,0,0,0,0,-1.0553,-1.0264,-1.019,-1.005,-0.9882,-0.9621,-0.9563,-0.9462,-0.9292,-0.9282,-0.9065,-0.9006,-0.8849,-0.8715,-0.8747,-0.8494,-0.8441,-0.8429,-0.8589,-0.8599,-0.8609,-0.8644,-0.8601,0,0,0,0,0,-1.0582,-1.0455,-1.0204,-1.0104,-1.0024,-0.9809,-0.9716,-0.9597,-0.941,-0.9335,-0.9153,-0.8967,-0.8797,-0.869,-0.8521,-0.8371,-0.8304,-0.8319,-0.8329,-0.8338,-0.833,-0.8232,-0.8234,-0.8214,-0.8214,-0.8214,0,0,-1.0636,-1.0462,-1.0394,-1.0139,-0.9995,-0.9858,-0.975,-0.9611,-0.9504,-0.931,-0.9136,-0.8995,-0.877,-0.8607,-0.8524,-0.849,-0.832,-0.8337,-0.8347,-0.8332,-0.8231,-0.8234,-0.8235,-0.8214,-0.8214,-0.8214,0,0,-1.0666,-1.0525,-1.0424,-1.0283,-1.0068,-0.9924,-0.99,-0.9652,-0.9554,-0.9377,-0.9227,-0.9089,-0.8805,-0.865,-0.8534,-0.8498,-0.8388,-0.8447,-0.8499,-0.8407,-0.8408,-0.8408,-0.839,-0.8387,-0.8439,-0.844,-0.844,0,-1.0758,-1.0558,-1.0382,-1.0252,-1.014,-0.9966,-0.9855,-0.9722,-0.946,-0.9381,-0.9348,-0.8984,-0.8821,-0.8615,-0.8606,-0.8519,-0.8476,-0.8478,-0.8424,-0.8422,-0.8419,-0.84,-0.8394,-0.8448,-0.8447,-0.8446,-0.8445,0,-1.0678,-1.054,-1.0482,-1.0243,-1.0123,-1.0003,-0.9799,-0.9696,-0.9586,-0.9442,-0.9256,-0.9054,-0.8838,-0.8779,-0.8667,-0.8553,-0.8538,-0.8468,-0.841,-0.8433,-0.841,-0.8402,-0.846,-0.8457,-0.8455,-0.8453,0,0,-1.0823,-1.0487,-1.0469,-1.0355,-1.0103,-0.9986,-0.9851,-0.9649,-0.9563,-0.9383,-0.926,-0.902,-0.8952,-0.882,-0.8686,-0.8606,-0.8583,-0.8542,-0.8533,-0.8554,-0.8436,-0.8492,-0.8487,-0.8508,-0.8506,-0.8504,-0.8454,0,-1.0815,-1.0582,-1.0417,-1.0241,-1.0106,-0.9934,-0.9815,-0.9641,-0.95,-0.9355,-0.9192,-0.9026,-0.8951,-0.887,-0.8782,-0.8606,-0.8556,-0.8606,-0.8381,-0.8375,-0.8444,-0.8475,-0.8534,-0.8497,-0.8444,-0.8443,-0.8442,0,-1.0778,-1.0614,-1.0429,-1.0186,-1.0122,-1.0021,-0.9817,-0.9684,-0.9477,-0.9378,-0.9231,-0.9095,-0.8932,-0.8888,-0.8656,-0.8695,-0.859,-0.8488,-0.8482,-0.8453,-0.8411,-0.8445,-0.8481,-0.8476,-0.8427,-0.8428,-0.8429,0,-1.0899,-1.063,-1.0483,-1.039,-1.0104,-1.0036,-0.9911,-0.9705,-0.9591,-0.9408,-0.933,-0.9128,-0.9016,-0.8857,-0.8664,-0.8651,-0.8449,-0.839,-0.8354,-0.8359,-0.8321,-0.8326,-0.834,-0.8257,-0.8257,-0.8257,-0.8257,0,-1.0908,-1.08,-1.0533,-1.0443,-1.0312,-1.0117,-0.9989,-0.9847,-0.9665,-0.9534,-0.9368,-0.9246,-0.9001,-0.8845,-0.8692,-0.8519,-0.8469,-0.8378,-0.8338,-0.8393,-0.8404,-0.8322,-0.8318,-0.8255,-0.8256,-0.8256,-0.8256,0,-1.1022,-1.0841,-1.0669,-1.0413,-1.0345,-1.0259,-1.0033,-0.9931,-0.9781,-0.9617,-0.9566,-0.9324,-0.9132,-0.8925,-0.866,-0.8556,-0.8389,-0.8334,-0.8464,-0.8441,-0.8416,-0.8421,-0.8376,-0.8357,-0.8292,-0.8292,-0.8293,0,-1.1041,-1.0955,-1.069,-1.0597,-1.0479,-1.0328,-1.0213,-1.0012,-0.9896,-0.9651,-0.9576,-0.9374,-0.9202,-0.8899,-0.8692,-0.8486,-0.8422,-0.842,-0.839,-0.8445,-0.8417,-0.8425,-0.8412,-0.8431,-0.8433,-0.8434,-0.8435,0,-1.109,-1.1004,-1.0851,-1.0663,-1.0532,-1.0372,-1.0204,-1.0133,-0.9896,-0.9771,-0.9579,-0.9446,-0.9177,-0.8973,-0.8742,-0.8597,-0.8473,-0.8447,-0.8426,-0.8481,-0.8559,-0.8513,-0.8489,-0.8449,-0.8447,-0.8446,-0.8446,-0.8445,-1.1154,-1.1068,-1.0869,-1.07,-1.0554,-1.04,-1.0292,-1.0128,-0.9968,-0.9741,-0.9628,-0.9433,-0.9215,-0.8893,-0.8752,-0.8588,-0.855,-0.8522,-0.8515,-0.8511,-0.8523,-0.8587,-0.8544,-0.8543,-0.8543,-0.8542,-0.8541,0,-1.1193,-1.1057,-1.0904,-1.0678,-1.0542,-1.0447,-1.0253,-1.0142,-0.9978,-0.9791,-0.9626,-0.9398,-0.9198,-0.8975,-0.8758,-0.8669,-0.8605,-0.8618,-0.8621,-0.8589,-0.8571,-0.861,-0.8673,-0.8673,-0.8673,-0.8673,-0.8673,-0.8673,-1.1198,-1.1046,-1.0935,-1.0703,-1.0562,-1.038,-1.0276,-1.0128,-0.9978,-0.9736,-0.9573,-0.9432,-0.9226,-0.8992,-0.88,-0.8737,-0.8663,-0.8693,-0.8613,-0.8601,-0.8591,-0.8581,-0.8616,-0.8679,-0.8679,-0.8643,-0.8643,-0.8643]}]]